Parsons, KS

7:15 PM CST on November 13, 2019 (GMT -0600)
Tri-City

Weather History for KPPF - October, 2019

Change the Weather History Date:

Sunday, October 13, 2019

  Actual Average Record
Temperature  
Mean Temperature 54 °F -  
Max Temperature 72 °F 72 °F 90 °F (1952)
Min Temperature 37 °F 47 °F 28 °F (1987)
Degree Days  
Heating Degree Days 10    
Growing Degree Days 4 (Base 50)    
Moisture  
Dew Point 41 °F    
Average Humidity 71    
Maximum Humidity 97    
Minimum Humidity 36    
Precipitation  
Precipitation 0.00 in - - ()
Sea Level Pressure  
Sea Level Pressure 29.99 in    
Wind  
Wind Speed 4 mph ()    
Max Wind Speed 12 mph    
Max Gust Speed 21 mph    
Visibility 10.0 miles    
Events      
Averages and records for this station are not official NWS values.
T = Trace of Precipitation, MM = Missing Value Source: Averaged Metar Reports

Daily Weather History Graph

Daily Weather History Graph

Search for Another Location

Airport or City:

Astronomy

Oct. 13, 2019 Rise Set
Actual Time 7:27 AM CDT 6:48 PM CDT
Civil Twilight 7:01 AM CDT 7:14 PM CDT
Nautical Twilight 6:31 AM CDT 7:44 PM CDT
Astronomical Twilight 6:01 AM CDT 8:14 PM CDT
Moon 7:09 PM CDT (10/13) 7:04 AM CDT (10/13)
Length of Visible Light 12h 12m
Length of Day
11h 20m
Full, 100% of the Moon is Illuminated
Oct 13
Full
Oct 13
Full
Oct 21
Last Quarter
Oct 27
New
Nov 4
First Quarter

Hourly Weather History & Observations

Time (CDT) Temp. Windchill Dew Point Humidity Pressure Visibility Wind Dir Wind Speed Gust Speed Precip Events Conditions
12:52 AM 45.0 °F 41.8 °F 37.9 °F 76% 29.99 in 10.0 mi South 5.8 mph - N/A   Clear
1:52 AM 44.1 °F 41.5 °F 37.0 °F 76% 29.99 in 10.0 mi South 4.6 mph - N/A   Clear
2:52 AM 41.0 °F 39.0 °F 37.0 °F 86% 29.99 in 10.0 mi SSE 3.5 mph - N/A   Clear
3:52 AM 41.0 °F 38.0 °F 36.0 °F 82% 29.98 in 10.0 mi South 4.6 mph - N/A   Clear
4:52 AM 41.0 °F 39.0 °F 36.0 °F 82% 29.98 in 10.0 mi South 3.5 mph - N/A   Clear
5:52 AM 39.0 °F - 36.0 °F 89% 29.99 in 10.0 mi Calm Calm - N/A   Clear
6:52 AM 39.0 °F - 35.1 °F 86% 29.99 in 10.0 mi Calm Calm - N/A   Clear
7:52 AM 37.9 °F - 34.0 °F 86% 30.00 in 10.0 mi Calm Calm - N/A   Clear
8:52 AM 45.0 °F 42.6 °F 39.0 °F 80% 30.01 in 10.0 mi South 4.6 mph - N/A   Clear
9:52 AM 52.0 °F - 39.0 °F 61% 30.02 in 10.0 mi SSW 6.9 mph - N/A   Clear
10:52 AM 57.9 °F - 39.0 °F 49% 30.02 in 10.0 mi South 11.5 mph - N/A   Clear
11:52 AM 64.0 °F - 37.9 °F 38% 30.01 in 10.0 mi SW 10.4 mph 20.7 mph N/A   Clear
12:52 PM 66.0 °F - 41.0 °F 40% 30.00 in 10.0 mi SSW 8.1 mph - N/A   Clear
1:52 PM 70.0 °F - 44.1 °F 39% 29.99 in 10.0 mi South 8.1 mph - N/A   Clear
2:52 PM 71.1 °F - 43.0 °F 36% 29.96 in 10.0 mi Variable 4.6 mph - N/A   Clear
3:52 PM 72.0 °F - 44.1 °F 37% 29.96 in 10.0 mi South 4.6 mph - N/A   Clear
4:52 PM 72.0 °F - 44.1 °F 37% 29.95 in 10.0 mi SSE 5.8 mph - N/A   Clear
6:52 PM 55.9 °F - 48.9 °F 77% 29.97 in 10.0 mi Calm Calm - N/A   Clear
7:52 PM 51.1 °F - 48.0 °F 89% 29.99 in 10.0 mi Calm Calm - N/A   Clear
8:52 PM 48.9 °F - 46.9 °F 93% 30.00 in 10.0 mi Calm Calm - N/A   Clear
9:52 PM 46.0 °F - 45.0 °F 96% 30.01 in 10.0 mi Calm Calm - N/A   Clear
10:52 PM 46.9 °F - 45.0 °F 93% 30.02 in 10.0 mi Calm Calm - N/A   Clear
11:52 PM 45.0 °F - 44.1 °F 97% 30.02 in 10.0 mi Calm Calm - N/A   Clear